Location: Marstown
(39.5056°N, 77.0820°W)
Time: 13:44:05
(UTC-04:00)

X-37B - Visible Passes

Search period start: 22 June 2021 00:00
Search period end: 02 July 2021 00:00
Orbit: 386 x 389 km, 45.0° (Epoch: 10 June)

Date Brightness Start Highest point End Pass type
(mag) Time Alt. Az. Time Alt. Az. Time Alt. Az.
22 Jun 3.1 02:20:15 19° ENE 02:20:15 19° ENE 02:21:26 10° ENE visible
22 Jun 0.4 03:52:39 13° WNW 03:55:22 78° SSW 03:58:32 10° ESE visible
22 Jun 0.9 22:03:13 10° SW 22:06:15 42° SSE 22:08:47 14° E visible
22 Jun 2.8 23:39:53 10° W 23:41:15 22° WNW 23:41:15 22° WNW visible
23 Jun 3.3 02:59:41 13° ESE 02:59:41 13° ESE 03:00:08 10° ESE visible
23 Jun 1.8 04:32:12 18° WSW 04:33:25 22° SW 04:35:56 10° SSE visible
23 Jun 1.1 22:41:20 10° WSW 22:44:29 60° NNW 22:47:14 13° ENE visible
24 Jun 3.4 00:18:38 10° WNW 00:19:34 16° NW 00:19:34 16° NW visible
24 Jun 0.5 21:42:55 10° WSW 21:46:05 81° SSE 21:49:16 10° ENE visible
24 Jun 2.4 23:20:03 10° WNW 23:22:56 32° N 23:24:24 21° NE visible
25 Jun 1.9 22:21:25 10° W 22:24:26 40° NNW 22:27:29 10° ENE visible
25 Jun 2.8 23:58:42 10° WNW 00:01:00 27° NNW 00:01:00 27° NNW visible
26 Jun 1.2 21:22:52 10° WSW 21:26:00 60° NNW 21:29:09 10° ENE visible
26 Jun 2.6 23:00:10 10° WNW 23:03:00 28° N 23:05:06 15° NE visible
27 Jun 3.7 00:37:02 10° WNW 00:37:22 12° NW 00:37:22 12° NW visible
27 Jun 2.4 22:01:34 10° WNW 22:04:29 32° N 22:07:23 10° ENE visible
27 Jun 2.3 23:38:40 10° WNW 23:41:21 32° N 23:41:21 32° N visible
28 Jun 2.5 22:40:14 10° WNW 22:43:04 29° N 22:45:16 14° ENE visible
29 Jun 3.5 00:16:54 10° WNW 00:17:32 15° WNW 00:17:32 15° WNW visible
29 Jun 2.5 21:41:42 10° WNW 21:44:32 28° N 21:47:22 10° ENE visible
29 Jun 1.7 23:18:34 10° WNW 23:21:26 42° N 23:21:26 42° N visible
30 Jun 2.2 22:20:12 10° WNW 22:23:08 33° N 22:25:20 15° ENE visible
30 Jun 3.3 23:56:48 10° WNW 23:57:35 16° WNW 23:57:35 16° WNW visible
01 Jul 2.4 21:21:46 10° WNW 21:24:37 29° N 21:27:27 10° ENE visible
01 Jul 0.9 22:58:25 10° WNW 23:01:30 64° N 23:01:30 64° N visible
